Regional Weather Roundup
Issued by NWS

Home | Current Version | Previous Version | Graphics & Text | Print | Product List | Glossary On
Versions: 1 2 3 4 5 6 7 8 9 10 11 12 13 14 15 16 17 18 19 20 21 22 23 24 25 26 27 28 29 30 31 32 33 34 35 36 37 38 39 40 41 42 43 44 45 46 47 48 49 50
000
ASUS45 KBOU 211007
RWRCO

WEATHER ROUNDUP FOR COLORADO
NATIONAL WEATHER SERVICE DENVER/BOULDER CO
300 AM MST SAT JAN 21 2017

NOTE: "FAIR" INDICATES FEW OR NO CLOUDS BELOW 12000 FEET WITH NO
SIGNIFICANT WEATHER AND/OR OBSTRUCTIONS TO VISIBILITY.

COZ001>005-013-030-031-211100-
...NORTHWEST COLORADO...

CITY           SKY/WX    TMP DP  RH WIND       PRES   REMARKS
CRAIG          FAIR      18  11  74 CALM      29.37F
HAYDEN         FAIR      16   9  73 SE10      29.36F WCI   3
MEEKER         MOCLDY    20  16  84 CALM      29.34F
MOUNT WERNER   NOT AVBL
STEAMBOAT SPGS FAIR      11  10  93 SE8       29.36F WCI   0
WALDEN           N/A     12   5  73 E6        29.38S WCI   3
$$

COZ006>008-011-211100-
...WEST CENTRAL VALLEYS...

CITY           SKY/WX    TMP DP  RH WIND       PRES   REMARKS
GRAND JUNCTION CLOUDY    34  29  82 E12       29.35F WCI  25
MONTROSE       CLOUDY    30  24  78 SE8       29.39F WCI  22
EAGLE          FAIR      11   9  92 SE5       29.45S WCI   3
RIFLE          CLOUDY    25  23  92 S3        29.38F
DELTA          MOCLDY    35  27  73 E8        29.39S WCI  29
NUCLA          LGT SNOW  32  30  93 CALM      29.40F VSB 1
$$

COZ017>023-064>068-211100-
...SOUTHWEST COLORADO...

CITY           SKY/WX    TMP DP  RH WIND       PRES   REMARKS
DURANGO        LGT SNOW  27  25  92 E5        29.42F VSB 3/4 WCI  22
CORTEZ         LGT SNOW  32  30  92 W5        29.38F FOG     WCI  27
PAGOSA SPRINGS LGT SNOW  26  25  99 CALM      29.45F VSB 3/4
TELLURIDE      NOT AVBL
WOLF CREEK PAS CLOUDY    12  12 100 S13       29.45F WCI  -3
$$

COZ009-010-012-014-032>034-037-058>063-211100-
...CENTRAL COLORADO...

CITY           SKY/WX    TMP DP  RH WIND       PRES   REMARKS
ASPEN          FAIR      15  11  83 NW5       29.36F WCI   8
BUENA VISTA    FAIR       7   2  80 W10       29.43S WCI  -8
COPPER MTN     FAIR      14   3  62 MISG      29.35F
BERTHOUD PASS  NOT AVBL
COTTONWOOD PAS FAIR      19  10  68 CALM      29.39F
GUNNISON       FAIR      11   6  81 NE8       29.46F WCI  -1
KREMMLING      FOG      N/A N/A N/A CALM      29.43F VSB 1/4
LEADVILLE      FAIR       6   2  83 SE3       29.37F
MONARCH PASS     N/A      9   5  85 SW16G24   29.48F WCI  -9
SALIDA         FAIR      27  15  61 S7        29.49F WCI  19
SUNLIGHT       NOT AVBL
WILKERSON PASS FAIR      10   7  85 SW13G18   29.40R WCI  -5
$$

COZ069>075-211100-
...SAN LUIS VALLEY/SANGRE DE CRISTO MOUNTAINS...

CITY           SKY/WX    TMP DP  RH WIND       PRES   REMARKS
ALAMOSA        CLOUDY    17  14  88 N3        29.47F
LA VETA PASS   FAIR      21  18  86 NE25G38   29.40F WCI   4
SAGUACHE       MOCLDY     9   5  85 N5        29.49S WCI   0
$$

COZ035-036-038>040-211100-
...NORTHERN COLORADO FRONT RANGE...

CITY           SKY/WX    TMP DP  RH WIND       PRES   REMARKS
DENVER INTL AP FAIR      24  16  71 SE8       29.36F WCI  15
DMNS CITY PARK   N/A     28  20  74 MISG      29.37S
AURORA         PTCLDY    24  17  73 SW10      29.37F WCI  14
FRONT RANGE AP FAIR      27  21  80 SE7       29.38S WCI  19
ERIE MUNI ARPT FAIR      24  23  95 CALM      29.38F
BOULDER MUN AP FAIR      30  25  80 CALM      29.38F
CENTENNIAL     FAIR      26  14  60 S3        29.37F
BROOMFIELD     FAIR      30  27  86 NW7       29.37F WCI  23
FORT COLLINS   FAIR      25  19  80 N8        29.39F WCI  16
LONGMONT       FAIR      30  25  81 CALM      29.40F
$$

COZ041-046-047-076>085-087-088-211100-
...PIKES PEAK/PALMER DIVIDE AND SOUTHERN FOOTHILLS...

CITY           SKY/WX    TMP DP  RH WIND       PRES   REMARKS
COLO. SPRINGS  MOCLDY    25  20  81 W5        29.41S WCI  19
A. F. ACADEMY  FAIR      24  20  87 SE3       29.39S
SCHRIEVER AFB  NOT AVBL
ELLICOTT       FAIR     N/A N/A N/A S5        29.39S
FALCON         FAIR      25  16  69 N3        29.40F
FORT CARSON    FAIR      24  22  91 NW5       29.39S WCI  18
LIMON          CLOUDY    18  17  96 W5        29.40F FOG     WCI  11
MONUMENT HILL  FAIR      27  12  54 SW7       29.39F WCI  19
TRINIDAD       FAIR      21  12  68 NW6       29.43R WCI  13
$$

COZ042>045-048>051-090-091-211100-
...NORTHEAST COLORADO...

CITY           SKY/WX    TMP DP  RH WIND       PRES   REMARKS
GREELEY ARPT   FAIR      23  22  96 N7        29.39F WCI  15
AKRON          FAIR      27  18  69 S3        29.40F
BURLINGTON     FAIR      29  24  82 S5        29.43F WCI  24
WRAY           FAIR      25  23  93 CALM      29.43F
STERLING       FAIR      23  21  93 S5        29.41F WCI  17
HOLYOKE        FAIR      28  23  80 W7        29.43S WCI  21
FORT MORGAN    FAIR      23  20  89 NE5       29.41F WCI  17
$$

COZ086-089-092>099-211100-
...SOUTHEAST COLORADO...

CITY           SKY/WX    TMP DP  RH WIND       PRES   REMARKS
PUEBLO         FOG       28  27  96 W3        29.42S VSB 1/4
LA JUNTA       FOG       25  22  88 S3        29.42F VSB 1/4
LAMAR          FOG       22  19  89 SW5       29.42F VSB 1/4 WCI  16
SPRINGFIELD      N/A     27  23  85 W5        29.41F WCI  22
$$



USA.gov is the U.S. government's official web portal to all federal, state and local government web resources and services.